Time,TemperatureF,DewpointF,PressureIn,WindDirection,WindDirectionDegrees,WindSpeedMPH,WindSpeedGustMPH,Humidity,HourlyPrecipIn,Conditions,Clouds,dailyrainin,SoftwareType,DateUTC
2013-05-11 00:03:00,55.0,54.0,29.82,NNE,14,0.0,0.0,95,0.00,,,0.00,,2013-05-11 04:03:00,
2013-05-11 00:12:00,55.0,54.0,29.82,NNE,14,0.0,0.0,95,0.00,,,0.00,,2013-05-11 04:12:00,
2013-05-11 00:23:00,54.0,53.0,29.82,NNE,14,0.0,0.0,95,0.00,,,0.00,,2013-05-11 04:23:00,
2013-05-11 00:33:00,54.0,53.0,29.81,NNE,14,0.0,0.0,96,0.00,,,0.00,,2013-05-11 04:33:00,
2013-05-11 00:43:00,54.0,53.0,29.80,NNE,14,0.0,0.0,96,0.00,,,0.00,,2013-05-11 04:43:00,
2013-05-11 00:52:00,54.0,53.0,29.80,NNE,14,0.0,0.0,96,0.00,,,0.00,,2013-05-11 04:52:00,
2013-05-11 01:02:00,54.0,53.0,29.80,NNE,14,0.0,0.0,96,0.00,,,0.00,,2013-05-11 05:02:00,
2013-05-11 01:12:00,54.0,53.0,29.80,NNE,14,0.0,0.0,96,0.00,,,0.00,,2013-05-11 05:12:00,
2013-05-11 01:22:00,54.0,53.0,29.79,NNE,14,0.0,0.0,96,0.00,,,0.00,,2013-05-11 05:22:00,
2013-05-11 01:32:00,54.0,53.0,29.79,NNE,14,0.0,0.0,96,0.00,,,0.00,,2013-05-11 05:32:00,
2013-05-11 01:42:00,54.0,53.0,29.79,NNE,14,0.0,0.0,96,0.00,,,0.00,,2013-05-11 05:42:00,
2013-05-11 01:52:00,54.0,53.0,29.79,NNE,14,0.0,0.0,96,0.00,,,0.00,,2013-05-11 05:52:00,
2013-05-11 02:02:00,55.0,54.0,29.79,NNE,14,0.0,4.0,97,0.00,,,0.00,,2013-05-11 06:02:00,
2013-05-11 02:12:00,55.0,54.0,29.79,NNE,14,0.0,4.0,97,0.00,,,0.00,,2013-05-11 06:12:00,
2013-05-11 02:21:00,55.0,54.0,29.78,NNE,14,0.0,1.0,97,0.00,,,0.00,,2013-05-11 06:21:00,
2013-05-11 02:32:00,55.0,54.0,29.78,NNE,14,0.0,0.0,97,0.02,,,0.02,,2013-05-11 06:32:00,
2013-05-11 02:42:00,55.0,54.0,29.78,SSE,155,0.0,1.0,97,0.03,,,0.03,,2013-05-11 06:42:00,
2013-05-11 02:52:00,55.0,54.0,29.78,SSE,155,0.0,1.0,97,0.03,,,0.03,,2013-05-11 06:52:00,
2013-05-11 03:02:00,55.0,54.0,29.77,SSE,155,0.0,0.0,97,0.03,,,0.03,,2013-05-11 07:02:00,
2013-05-11 03:12:00,55.0,54.0,29.77,SSE,155,0.0,0.0,97,0.03,,,0.03,,2013-05-11 07:12:00,
2013-05-11 03:21:00,56.0,55.0,29.77,SSE,155,0.0,1.0,97,0.00,,,0.02,,2013-05-11 07:21:00,
2013-05-11 03:32:00,56.0,55.0,29.76,SSE,155,0.0,0.0,97,0.00,,,0.00,,2013-05-11 07:32:00,
2013-05-11 03:42:00,56.0,55.0,29.76,SSE,155,0.0,0.0,97,0.00,,,0.00,,2013-05-11 07:42:00,
2013-05-11 03:52:00,56.0,55.0,29.75,SSE,155,0.0,0.0,97,0.01,,,0.01,,2013-05-11 07:52:00,
2013-05-11 04:02:00,56.0,55.0,29.74,SSE,155,0.0,0.0,97,0.01,,,0.01,,2013-05-11 08:02:00,
2013-05-11 04:12:00,56.0,55.0,29.74,SSE,155,0.0,0.0,97,0.01,,,0.01,,2013-05-11 08:12:00,
2013-05-11 04:21:00,56.0,55.0,29.73,SSE,155,0.0,0.0,97,0.01,,,0.01,,2013-05-11 08:21:00,
2013-05-11 04:32:00,56.0,55.0,29.73,SSE,155,0.0,0.0,97,0.01,,,0.01,,2013-05-11 08:32:00,
2013-05-11 04:42:00,56.0,55.0,29.72,SSE,155,0.0,2.0,97,0.01,,,0.01,,2013-05-11 08:42:00,
2013-05-11 04:52:00,56.0,55.0,29.72,SSE,155,0.0,2.0,97,0.01,,,0.01,,2013-05-11 08:52:00,
2013-05-11 05:01:00,56.0,55.0,29.72,SSE,153,0.0,0.0,97,0.01,,,0.02,,2013-05-11 09:01:00,
2013-05-11 05:11:00,56.0,55.0,29.72,SSE,153,0.0,0.0,97,0.01,,,0.02,,2013-05-11 09:11:00,
2013-05-11 05:21:00,56.0,55.0,29.72,SSE,155,0.0,2.0,97,0.01,,,0.02,,2013-05-11 09:21:00,
2013-05-11 05:32:00,56.0,55.0,29.72,SSW,194,0.0,2.0,97,0.01,,,0.02,,2013-05-11 09:32:00,
2013-05-11 05:42:00,56.0,55.0,29.71,SSW,194,0.0,2.0,97,0.02,,,0.03,,2013-05-11 09:42:00,
2013-05-11 05:53:00,56.0,55.0,29.71,SSW,194,0.0,2.0,97,0.02,,,0.03,,2013-05-11 09:53:00,
2013-05-11 06:03:00,56.0,55.0,29.70,SSW,194,0.0,1.0,97,0.01,,,0.03,,2013-05-11 10:03:00,
2013-05-11 06:12:00,56.0,55.0,29.70,SSW,194,0.0,1.0,97,0.01,,,0.03,,2013-05-11 10:12:00,
2013-05-11 06:22:00,56.0,55.0,29.71,SSW,194,0.0,0.0,98,0.00,,,0.01,,2013-05-11 10:22:00,
2013-05-11 06:33:00,57.0,56.0,29.70,NW,309,0.0,1.0,97,0.01,,,0.01,,2013-05-11 10:33:00,
2013-05-11 06:42:00,57.0,56.0,29.70,NW,309,0.0,0.0,97,0.01,,,0.01,,2013-05-11 10:42:00,
2013-05-11 06:52:00,57.0,56.0,29.70,NW,309,0.0,0.0,97,0.01,,,0.01,,2013-05-11 10:52:00,
2013-05-11 07:02:00,57.0,56.0,29.70,NW,309,0.0,0.0,98,0.02,,,0.02,,2013-05-11 11:02:00,
2013-05-11 07:12:00,57.0,56.0,29.70,NW,309,0.0,0.0,98,0.02,,,0.02,,2013-05-11 11:12:00,
2013-05-11 07:22:00,57.0,56.0,29.70,NW,309,0.0,0.0,98,0.02,,,0.02,,2013-05-11 11:22:00,
2013-05-11 07:32:00,58.0,57.0,29.69,NW,309,0.0,0.0,98,0.01,,,0.02,,2013-05-11 11:32:00,
2013-05-11 07:42:00,58.0,57.0,29.69,South,182,1.0,5.0,98,0.01,,,0.02,,2013-05-11 11:42:00,
2013-05-11 07:52:00,58.0,57.0,29.69,South,182,1.0,5.0,98,0.01,,,0.02,,2013-05-11 11:52:00,
2013-05-11 08:01:00,58.0,57.0,29.69,South,182,0.0,1.0,98,0.00,,,0.02,,2013-05-11 12:01:00,
2013-05-11 08:11:00,58.0,57.0,29.69,South,182,0.0,1.0,98,0.00,,,0.02,,2013-05-11 12:11:00,
2013-05-11 08:22:00,58.0,57.0,29.68,South,182,0.0,1.0,98,0.00,,,0.02,,2013-05-11 12:22:00,
2013-05-11 08:32:00,58.0,57.0,29.68,SW,216,0.0,5.0,98,0.01,,,0.03,,2013-05-11 12:32:00,
2013-05-11 08:42:00,59.0,58.0,29.68,SSW,202,0.0,7.0,98,0.01,,,0.03,,2013-05-11 12:42:00,
2013-05-11 08:52:00,59.0,58.0,29.68,SSW,202,0.0,7.0,98,0.01,,,0.03,,2013-05-11 12:52:00,
2013-05-11 09:02:00,59.0,58.0,29.68,South,173,4.0,7.0,98,0.01,,,0.03,,2013-05-11 13:02:00,
2013-05-11 09:11:00,59.0,58.0,29.68,South,173,4.0,7.0,98,0.01,,,0.03,,2013-05-11 13:11:00,
2013-05-11 09:21:00,60.0,59.0,29.67,SW,235,8.0,15.0,98,0.00,,,0.01,,2013-05-11 13:21:00,
2013-05-11 09:32:00,62.0,61.0,29.67,SW,225,2.0,11.0,95,0.00,,,0.00,,2013-05-11 13:32:00,
2013-05-11 09:42:00,64.0,60.0,29.67,SW,223,10.0,14.0,87,0.00,,,0.00,,2013-05-11 13:42:00,
2013-05-11 09:52:00,64.0,60.0,29.67,SW,223,10.0,14.0,87,0.00,,,0.00,,2013-05-11 13:52:00,
2013-05-11 10:02:00,66.0,60.0,29.67,SW,226,8.0,18.0,80,0.00,,,0.00,,2013-05-11 14:02:00,
2013-05-11 10:11:00,66.0,60.0,29.67,SW,226,8.0,18.0,80,0.00,,,0.00,,2013-05-11 14:11:00,
2013-05-11 10:21:00,68.0,61.0,29.66,SW,225,8.0,18.0,77,0.00,,,0.00,,2013-05-11 14:21:00,
2013-05-11 10:32:00,69.0,60.0,29.66,WSW,237,8.0,15.0,73,0.00,,,0.00,,2013-05-11 14:32:00,
2013-05-11 10:42:00,70.0,60.0,29.66,SSW,199,9.0,15.0,70,0.00,,,0.00,,2013-05-11 14:42:00,
2013-05-11 10:52:00,70.0,60.0,29.66,SSW,199,9.0,15.0,70,0.00,,,0.00,,2013-05-11 14:52:00,
2013-05-11 11:01:00,69.0,59.0,29.66,SW,236,8.0,16.0,71,0.00,,,0.00,,2013-05-11 15:01:00,
2013-05-11 11:11:00,69.0,59.0,29.65,SW,234,10.0,18.0,71,0.00,,,0.00,,2013-05-11 15:11:00,
2013-05-11 11:21:00,69.0,59.0,29.65,SW,234,10.0,18.0,71,0.00,,,0.00,,2013-05-11 15:21:00,
2013-05-11 11:32:00,67.0,58.0,29.65,SSW,199,7.0,14.0,73,0.00,,,0.00,,2013-05-11 15:32:00,
2013-05-11 11:43:00,67.0,59.0,29.65,South,176,6.0,15.0,75,0.00,,,0.00,,2013-05-11 15:43:00,
2013-05-11 11:53:00,67.0,59.0,29.65,South,176,6.0,15.0,75,0.00,,,0.00,,2013-05-11 15:53:00,
2013-05-11 12:03:00,67.0,59.0,29.65,WSW,248,6.0,18.0,75,0.00,,,0.00,,2013-05-11 16:03:00,
2013-05-11 12:12:00,67.0,59.0,29.65,WSW,248,6.0,18.0,75,0.00,,,0.00,,2013-05-11 16:12:00,
2013-05-11 12:23:00,69.0,59.0,29.65,SSW,199,10.0,21.0,71,0.00,,,0.00,,2013-05-11 16:23:00,
2013-05-11 12:33:00,68.0,59.0,29.65,SW,235,11.0,18.0,73,0.00,,,0.00,,2013-05-11 16:33:00,
2013-05-11 12:42:00,67.0,58.0,29.65,SW,235,4.0,14.0,74,0.00,,,0.00,,2013-05-11 16:42:00,
2013-05-11 12:53:00,67.0,58.0,29.65,SW,235,4.0,14.0,74,0.00,,,0.00,,2013-05-11 16:53:00,
2013-05-11 13:02:00,67.0,59.0,29.64,SSE,150,7.0,11.0,75,0.00,,,0.00,,2013-05-11 17:02:00,
2013-05-11 13:12:00,67.0,59.0,29.64,SSE,150,7.0,11.0,75,0.00,,,0.00,,2013-05-11 17:12:00,
2013-05-11 13:22:00,67.0,59.0,29.64,SSW,198,10.0,15.0,76,0.00,,,0.00,,2013-05-11 17:22:00,
2013-05-11 13:32:00,67.0,60.0,29.64,SSW,195,4.0,12.0,77,0.00,,,0.00,,2013-05-11 17:32:00,
2013-05-11 13:42:00,67.0,60.0,29.64,South,187,3.0,12.0,78,0.00,,,0.00,,2013-05-11 17:42:00,
2013-05-11 13:52:00,67.0,60.0,29.64,South,187,3.0,12.0,78,0.00,,,0.00,,2013-05-11 17:52:00,
2013-05-11 14:01:00,66.0,59.0,29.64,SW,214,10.0,19.0,79,0.00,,,0.00,,2013-05-11 18:01:00,
2013-05-11 14:12:00,66.0,59.0,29.64,SW,214,10.0,19.0,79,0.00,,,0.00,,2013-05-11 18:12:00,
2013-05-11 14:21:00,66.0,60.0,29.64,South,172,6.0,7.0,80,0.00,,,0.00,,2013-05-11 18:21:00,
2013-05-11 14:32:00,66.0,59.0,29.64,SW,226,4.0,10.0,79,0.00,,,0.00,,2013-05-11 18:32:00,
2013-05-11 14:42:00,67.0,60.0,29.63,SW,222,3.0,9.0,78,0.00,,,0.00,,2013-05-11 18:42:00,
2013-05-11 14:52:00,67.0,60.0,29.63,SW,222,3.0,9.0,78,0.00,,,0.00,,2013-05-11 18:52:00,
2013-05-11 15:02:00,67.0,59.0,29.63,West,271,6.0,12.0,75,0.00,,,0.00,,2013-05-11 19:02:00,
2013-05-11 15:11:00,67.0,59.0,29.63,West,271,6.0,12.0,75,0.00,,,0.00,,2013-05-11 19:11:00,
2013-05-11 15:21:00,68.0,59.0,29.62,SW,225,6.0,14.0,74,0.00,,,0.00,,2013-05-11 19:21:00,
2013-05-11 15:32:00,68.0,59.0,29.62,WSW,238,8.0,18.0,73,0.00,,,0.00,,2013-05-11 19:32:00,
2013-05-11 15:42:00,68.0,59.0,29.62,WSW,238,8.0,18.0,73,0.00,,,0.00,,2013-05-11 19:42:00,
2013-05-11 15:53:00,68.0,59.0,29.62,SW,220,9.0,16.0,73,0.00,,,0.00,,2013-05-11 19:53:00,
2013-05-11 16:02:00,68.0,59.0,29.62,WSW,237,7.0,13.0,72,0.00,,,0.00,,2013-05-11 20:02:00,
2013-05-11 16:12:00,68.0,59.0,29.62,WSW,237,7.0,13.0,72,0.00,,,0.00,,2013-05-11 20:12:00,
2013-05-11 16:22:00,68.0,59.0,29.61,SW,214,6.0,14.0,73,0.00,,,0.00,,2013-05-11 20:22:00,
2013-05-11 16:32:00,68.0,59.0,29.61,SW,229,4.0,8.0,73,0.00,,,0.00,,2013-05-11 20:32:00,
2013-05-11 16:42:00,68.0,60.0,29.61,South,178,4.0,8.0,75,0.00,,,0.00,,2013-05-11 20:42:00,
2013-05-11 16:52:00,68.0,60.0,29.61,South,178,4.0,8.0,75,0.00,,,0.00,,2013-05-11 20:52:00,
2013-05-11 17:02:00,67.0,60.0,29.62,West,272,1.0,6.0,77,0.00,,,0.00,,2013-05-11 21:02:00,
2013-05-11 17:11:00,67.0,60.0,29.62,West,272,1.0,6.0,77,0.00,,,0.00,,2013-05-11 21:11:00,
2013-05-11 17:22:00,67.0,58.0,29.61,SW,227,2.0,8.0,73,0.00,,,0.00,,2013-05-11 21:22:00,
2013-05-11 17:33:00,67.0,58.0,29.61,WNW,286,3.0,8.0,72,0.00,,,0.00,,2013-05-11 21:33:00,
2013-05-11 17:43:00,67.0,58.0,29.61,WNW,286,3.0,8.0,72,0.00,,,0.00,,2013-05-11 21:43:00,
2013-05-11 17:53:00,68.0,58.0,29.61,WNW,300,4.0,8.0,70,0.00,,,0.00,,2013-05-11 21:53:00,
2013-05-11 18:02:00,68.0,58.0,29.62,West,263,1.0,8.0,70,0.00,,,0.00,,2013-05-11 22:02:00,
2013-05-11 18:13:00,68.0,58.0,29.62,West,263,1.0,8.0,70,0.00,,,0.00,,2013-05-11 22:13:00,
2013-05-11 18:23:00,68.0,57.0,29.62,West,267,4.0,9.0,68,0.00,,,0.00,,2013-05-11 22:23:00,
2013-05-11 18:33:00,67.0,59.0,29.63,SSW,198,5.0,11.0,75,0.02,,,0.02,,2013-05-11 22:33:00,
2013-05-11 18:42:00,67.0,59.0,29.63,SSW,198,5.0,11.0,75,0.02,,,0.02,,2013-05-11 22:42:00,
2013-05-11 18:52:00,64.0,58.0,29.64,SW,223,1.0,9.0,82,0.04,,,0.04,,2013-05-11 22:52:00,
2013-05-11 19:02:00,63.0,57.0,29.64,NW,309,1.0,7.0,81,0.04,,,0.04,,2013-05-11 23:02:00,
2013-05-11 19:12:00,63.0,57.0,29.64,NW,309,1.0,7.0,81,0.04,,,0.04,,2013-05-11 23:12:00,
2013-05-11 19:22:00,63.0,57.0,29.65,WNW,294,1.0,8.0,81,0.04,,,0.04,,2013-05-11 23:22:00,
2013-05-11 19:32:00,63.0,57.0,29.65,WNW,303,2.0,8.0,81,0.02,,,0.04,,2013-05-11 23:32:00,
2013-05-11 19:42:00,62.0,56.0,29.65,North,355,0.0,4.0,81,0.00,,,0.04,,2013-05-11 23:42:00,
2013-05-11 19:52:00,62.0,56.0,29.65,North,355,0.0,4.0,81,0.00,,,0.04,,2013-05-11 23:52:00,
2013-05-11 20:01:00,62.0,56.0,29.65,West,264,2.0,8.0,81,0.00,,,0.04,,2013-05-12 00:01:00,
2013-05-11 20:12:00,62.0,56.0,29.65,West,264,2.0,8.0,81,0.00,,,0.04,,2013-05-12 00:12:00,
2013-05-11 20:21:00,60.0,55.0,29.66,WSW,240,4.0,6.0,85,0.00,,,0.04,,2013-05-12 00:21:00,
2013-05-11 20:32:00,59.0,54.0,29.67,WSW,240,0.0,0.0,85,0.00,,,0.04,,2013-05-12 00:32:00,
2013-05-11 20:42:00,58.0,54.0,29.68,WSW,240,0.0,0.0,86,0.00,,,0.04,,2013-05-12 00:42:00,
2013-05-11 20:52:00,58.0,54.0,29.68,WSW,240,0.0,0.0,86,0.00,,,0.04,,2013-05-12 00:52:00,
2013-05-11 21:01:00,57.0,53.0,29.69,WSW,240,0.0,0.0,88,0.00,,,0.04,,2013-05-12 01:01:00,
2013-05-11 21:11:00,57.0,53.0,29.69,WSW,240,0.0,0.0,88,0.00,,,0.04,,2013-05-12 01:11:00,
2013-05-11 21:21:00,55.0,52.0,29.69,WSW,240,0.0,4.0,88,0.00,,,0.00,,2013-05-12 01:21:00,
2013-05-11 21:32:00,54.0,51.0,29.68,WSW,239,0.0,2.0,90,0.00,,,0.00,,2013-05-12 01:32:00,
2013-05-11 21:42:00,53.0,50.0,29.68,West,264,1.0,4.0,91,0.00,,,0.00,,2013-05-12 01:42:00,
2013-05-11 21:52:00,53.0,50.0,29.68,West,264,1.0,4.0,91,0.00,,,0.00,,2013-05-12 01:52:00,
2013-05-11 22:01:00,52.0,49.0,29.69,WNW,298,1.0,4.0,91,0.00,,,0.00,,2013-05-12 02:01:00,
2013-05-11 22:12:00,52.0,49.0,29.69,WNW,298,1.0,4.0,91,0.00,,,0.00,,2013-05-12 02:12:00,
2013-05-11 22:22:00,52.0,49.0,29.68,WNW,298,0.0,2.0,91,0.00,,,0.00,,2013-05-12 02:22:00,
2013-05-11 22:32:00,52.0,50.0,29.69,WNW,298,0.0,1.0,92,0.00,,,0.00,,2013-05-12 02:32:00,
2013-05-11 22:42:00,52.0,50.0,29.69,WNW,296,0.0,0.0,93,0.00,,,0.00,,2013-05-12 02:42:00,
2013-05-11 22:52:00,52.0,50.0,29.69,WNW,296,0.0,0.0,93,0.00,,,0.00,,2013-05-12 02:52:00,
2013-05-11 23:01:00,52.0,50.0,29.69,WNW,296,0.0,0.0,93,0.00,,,0.00,,2013-05-12 03:01:00,
2013-05-11 23:11:00,52.0,50.0,29.69,WNW,296,0.0,0.0,93,0.00,,,0.00,,2013-05-12 03:11:00,
2013-05-11 23:22:00,52.0,50.0,29.69,WNW,296,0.0,0.0,93,0.00,,,0.00,,2013-05-12 03:22:00,
2013-05-11 23:33:00,52.0,50.0,29.69,WNW,297,0.0,2.0,94,0.00,,,0.00,,2013-05-12 03:33:00,
2013-05-11 23:43:00,52.0,50.0,29.69,WNW,297,0.0,2.0,94,0.00,,,0.00,,2013-05-12 03:43:00,
2013-05-11 23:53:00,52.0,50.0,29.69,WNW,298,0.0,0.0,94,0.00,,,0.00,,2013-05-12 03:53:00,